TimeMDT,TemperatureF,Dew PointF,Humidity,Sea Level PressureIn,VisibilityMPH,Wind Direction,Wind SpeedMPH,Gust SpeedMPH,PrecipitationIn,Events,Conditions,WindDirDegrees,DateUTC
12:56 AM,46.9,39.9,77,29.77,-9999.0,Calm,Calm,-,N/A,,Unknown,0,2013-09-30 06:56:00
1:56 AM,48.0,37.9,68,29.76,-9999.0,Calm,Calm,-,N/A,,Unknown,0,2013-09-30 07:56:00
2:56 AM,51.1,37.9,61,29.75,-9999.0,West,4.6,-,N/A,,Unknown,280,2013-09-30 08:56:00
3:56 AM,53.1,35.1,50,29.74,-9999.0,West,5.8,-,N/A,,Unknown,270,2013-09-30 09:56:00
4:56 AM,54.0,30.9,41,29.74,-9999.0,West,9.2,-,N/A,,Unknown,280,2013-09-30 10:56:00
5:56 AM,53.1,30.9,43,29.76,-9999.0,West,9.2,-,N/A,,Unknown,280,2013-09-30 11:56:00
6:56 AM,54.0,30.0,40,29.79,-9999.0,WNW,10.4,-,N/A,,Unknown,290,2013-09-30 12:56:00
7:56 AM,62.1,32.0,32,29.78,-9999.0,WNW,11.5,-,N/A,,Unknown,290,2013-09-30 13:56:00
8:56 AM,70.0,34.0,27,29.76,-9999.0,WNW,10.4,-,N/A,,Unknown,300,2013-09-30 14:56:00
9:56 AM,77.0,30.0,18,29.75,-9999.0,WNW,11.5,-,N/A,,Unknown,300,2013-09-30 15:56:00
10:56 AM,81.0,28.9,15,29.74,-9999.0,WNW,9.2,-,N/A,,Unknown,300,2013-09-30 16:56:00
11:56 AM,82.9,24.1,12,29.74,-9999.0,Variable,3.5,-,N/A,,Unknown,0,2013-09-30 17:56:00
12:56 PM,82.0,27.0,13,29.73,-9999.0,West,3.5,-,N/A,,Unknown,280,2013-09-30 18:56:00
1:56 PM,84.0,25.0,12,29.69,-9999.0,Calm,Calm,-,N/A,,Unknown,0,2013-09-30 19:56:00
2:56 PM,86.0,28.0,12,29.67,-9999.0,SSW,6.9,-,N/A,,Unknown,200,2013-09-30 20:56:00
3:56 PM,84.0,28.0,13,29.66,-9999.0,SSW,11.5,18.4,N/A,,Unknown,200,2013-09-30 21:56:00
4:56 PM,82.9,30.9,15,29.65,-9999.0,South,9.2,-,N/A,,Unknown,190,2013-09-30 22:56:00
5:56 PM,78.1,34.0,20,29.67,-9999.0,South,8.1,-,N/A,,Unknown,190,2013-09-30 23:56:00
6:56 PM,66.9,37.0,33,29.70,-9999.0,South,8.1,-,N/A,,Unknown,180,2013-10-01 00:56:00
7:56 PM,64.0,37.9,38,29.70,-9999.0,South,9.2,-,N/A,,Unknown,190,2013-10-01 01:56:00
8:56 PM,61.0,39.9,46,29.71,-9999.0,South,11.5,-,N/A,,Unknown,170,2013-10-01 02:56:00
9:56 PM,57.9,39.0,49,29.71,-9999.0,South,8.1,-,N/A,,Unknown,190,2013-10-01 03:56:00
10:56 PM,57.9,37.9,47,29.69,-9999.0,South,9.2,-,N/A,,Unknown,190,2013-10-01 04:56:00
11:56 PM,54.0,37.9,55,29.70,-9999.0,SW,6.9,-,N/A,,Unknown,220,2013-10-01 05:56:00